Airfield :
LOGIN :

Register | Disclaimer

   EN    FR    IT 

 










Legend :    VFR   Marginal VFR   IFR   Intensive IFR   Very Intensive IFR
Visi :
Ceiling :
>= 8 km
>= 3000ft
5 to 8 km
1000 to 3000 ft
1500m to 5 km
500 to 1000 ft
800 to 1500m
200 to 500 ft
< 800m
< 200 ft
Symbols :   Thunderstorms  Fog  Heavy snow  Heavy precipitations  Wind > 20 kt
SIGMETs :     Misc.  Thunderstorms  Icing  Turbulence  Mountain Waves  Volcanic Ashes






- Airport Elevation : 265 ft


ETSH - Holzdorf AB

CURRENT METAR :
  • 050720Z 08004KT 9999 FEW050 BKN110 BKN260 20/14 Q1010 BLU BLU

EXPIRED METARs :
  • 050620Z 08003KT 9999 FEW050 SCT120 BKN220 17/14 Q1010 BLU+BLU TEMPO BLU+
  • 050520Z 04002KT 9999 FEW040 SCT120 BKN280 15/13 Q1010 BLU+BLU TEMPO BLU+

TAF TAF ETSH
Valid from the 05 at 08:00 until the 05 at 17:00 UTC


050718Z 0508/0517 08005KT 9999 NSW FEW050 SCT110
TEMPO 0511/0517 08010KT 9999 -SHRA SCT020 BKN030TCU
PROB30 0512/0517 08015G25KT 4000 -TSRA SCT015 BKN020CB



MET'MAP, your aeronautical weather chart ! - Copyright ORBIFLY December 2007 - Disclaimer

ORBIFLY MET'MAP TEAM :

Programming & Development : Alexandra Zaïnal
Concept & original design : Baudouin d'Aumeries
Assistance for programming : Marc-Olivier Méhu
Technical & hardware support : Manuel Goepfert

Contact : metmap@orbifly.com




SOURCES & CREDITS :

   NOAA